Stations météo

réclame
Mon MeteoGroup
Solenzara, France (7765): Température de l'air & dewpoint: 12.01.2019 13:00:00 - 18.01.2019 13:00:00 (CET)Solenzara, France (7765): Température de l'air 5cm: 12.01.2019 13:00:00 - 18.01.2019 13:00:00 (CET)Solenzara, France (7765): Température de l'air -20cm: 12.01.2019 13:00:00 - 18.01.2019 13:00:00 (CET)Solenzara, France (7765): Vitesse du vent & gusts: 12.01.2019 13:00:00 - 18.01.2019 13:00:00 (CET)Solenzara, France (7765): Direction du vent: 12.01.2019 13:00:00 - 18.01.2019 13:00:00 (CET)Solenzara, France (7765): reduced air pressure: 12.01.2019 13:00:00 - 18.01.2019 13:00:00 (CET)Solenzara, France (7765): visibility: 12.01.2019 13:00:00 - 18.01.2019 13:00:00 (CET)Solenzara, France (7765): Ensoleillement: 12.01.2019 13:00:00 - 18.01.2019 13:00:00 (CET)Solenzara, France (7765): Quantités de précipitations: 12.01.2019 13:00:00 - 18.01.2019 13:00:00 (CET)
Date & Time tt [°C] td [°C] tt 5cm [°C] tt -20cm [°C] ff [km/h] ff [knt] fx [km/h] fx [knt] dd ppp [hPa] vv [km] sd [min] rr [mm]
18.01.2019 13:00:00 15,1 -7,1 18,0 9,8 14 8 46 25 WNW 1010,3 31 60 0,0
18.01.2019 12:00:00 14,2 -4,1 17,4 9,7 22 12 46 25 W 1011,0 35 60 0,0
18.01.2019 11:00:00 13,8 -3,5 16,0 9,7 21 11 46 25 W 1011,5 42 60 0,0
18.01.2019 10:00:00 13,4 -3,4 11,7 9,7 20 11 46 25 W 1011,5 51 60 0,0
18.01.2019 09:00:00 12,8 -3,9 10,7 9,8 14 8 37 20 NW 1010,7 59 58 0,0
18.01.2019 08:00:00 12,5 -4,2 9,9 9,8 20 11 43 23 WNW 1010,0 60 5 0,0
18.01.2019 07:00:00 12,6 -2,9 8,2 9,8 18 10 38 20 WNW 1010,0 60 0 0,0
18.01.2019 06:00:00 11,7 -1,5 6,7 9,9 11 6 32 17 WNW 1010,4 60 0 0,0
18.01.2019 05:00:00 12,3 0,4 8,1 9,9 19 11 32 17 W 1010,2 60 0 0,0
18.01.2019 04:00:00 11,3 3,8 7,0 10,0 10 5 18 10 WNW 1010,9 60 0 0,0
18.01.2019 03:00:00 12,0 4,5 5,3 10,0 10 6 27 14 WNW 1011,2 60 0 0,0
18.01.2019 02:00:00 8,5 3,9 4,9 10,1 9 5 19 10 SE 1011,5 60 0 0,0
18.01.2019 01:00:00 8,4 3,8 4,5 10,1 8 5 18 10 SSW 1011,9 53 0 0,0
18.01.2019 00:00:00 7,6 4,0 3,1 10,2 5 3 12 6 W 1012,6 43 0 0,0
17.01.2019 23:00:00 8,8 4,2 4,5 10,3 5 3 16 8 N 1012,7 57 0 0,0
17.01.2019 22:00:00 7,9 3,4 5,2 10,3 6 4 15 8 N 1012,6 51 0 0,0
17.01.2019 21:00:00 9,4 4,4 5,7 10,3 8 4 19 11 WSW 1012,8 54 0 0,0
17.01.2019 20:00:00 9,1 4,5 5,5 10,3 8 4 14 8 W 1013,1 41 0 0,0
17.01.2019 19:00:00 10,3 4,9 7,3 10,2 3 1 13 7 WSW 1013,3 58 0 0,0
17.01.2019 18:00:00 10,4 5,2 7,9 10,1 8 4 12 7 W 1013,3 52 0 0,0
17.01.2019 17:00:00 12,2 5,4 9,5 10,0 10 5 14 8 N 1013,2 45 0 0,0
17.01.2019 16:00:00 13,1 6,0 11,4 9,8 10 5 20 11 NE 1013,2 60 46 0,0
17.01.2019 15:00:00 15,2 4,8 16,5 9,7 12 6 16 9 NNE 1013,2 60 60 0,0
17.01.2019 14:00:00 14,2 4,5 18,1 9,5 7 4 11 6 NE 1013,5 20 50 0,0
17.01.2019 13:00:00 13,5 4,6 18,2 9,4 6 3 12 7 ESE 1014,3 59 35 0,0
17.01.2019 12:00:00 14,4 4,9 15,1 9,3 4 2 11 6 ESE 1015,1 47 25 0,0
17.01.2019 11:00:00 11,6 4,6 12,9 9,4 3 2 10 5 W 1016,3 51 6 0,0
17.01.2019 10:00:00 11,3 4,7 9,0 9,4 3 2 14 7 NNW 1016,3 57 50 0,0
17.01.2019 09:00:00 7,9 2,4 5,0 9,4 10 5 19 10 W 1016,3 54 47 0,0
17.01.2019 08:00:00 6,4 2,1 4,8 9,5 11 6 18 10 W 1016,4 59 0 0,0
17.01.2019 07:00:00 6,4 1,9 4,9 9,6 10 5 19 11 W 1016,6 60 0 0,0
17.01.2019 06:00:00 6,5 2,2 4,4 9,6 12 6 17 9 W 1016,7 60 0 0,0
17.01.2019 05:00:00 6,5 2,2 1,7 9,7 9 5 18 10 WNW 1017,1 60 0 0,0
17.01.2019 04:00:00 6,2 2,3 1,3 9,8 0 0 16 8 N 1017,8 60 0 0,0
17.01.2019 03:00:00 7,6 2,5 5,5 9,8 8 4 21 11 WNW 1017,9 60 0 0,0
17.01.2019 02:00:00 7,6 2,7 6,3 9,8 12 6 21 11 W 1018,3 60 0 0,0
17.01.2019 01:00:00 7,7 3,0 5,8 9,9 10 5 18 10 W 1018,8 60 0 0,0
17.01.2019 00:00:00 7,5 2,8 5,7 10,0 11 6 16 9 W 1019,3 55 0 0,0
16.01.2019 23:00:00 7,5 3,0 5,8 10,0 11 6 16 9 W 1019,7 55 0 0,0
16.01.2019 22:00:00 8,0 3,1 5,9 10,0 11 6 16 9 W 1019,7 57 0 0,0
16.01.2019 21:00:00 8,2 3,4 6,2 10,0 9 5 16 9 W 1019,5 41 0 0,0
16.01.2019 20:00:00 8,9 3,7 5,9 10,0 10 5 17 9 W 1019,4 47 0 0,0
16.01.2019 19:00:00 9,1 4,3 6,6 10,0 11 6 18 10 W 1019,3 50 0 0,0
16.01.2019 18:00:00 8,9 4,7 5,4 9,9 6 4 14 8 WSW 1019,1 33 0 0,0
16.01.2019 17:00:00 12,6 5,7 8,5 9,7 5 3 17 9 NW 1018,9 43 34 0,0
16.01.2019 16:00:00 15,1 5,6 13,0 9,6 9 5 35 19 N 1018,8 41 60 0,0
16.01.2019 15:00:00 16,0 4,4 17,3 9,4 19 10 41 22 SSE 1018,7 39 60 0,0
16.01.2019 14:00:00 14,3 7,8 17,6 9,3 34 19 49 27 SSE 1019,0 19 60 0,0
16.01.2019 13:00:00 14,3 6,9 17,6 9,1 34 18 46 25 SSE 1019,8 40 60 0,0
16.01.2019 12:00:00 13,2 4,6 16,0 9,1 5 3 11 6 ENE 1021,2 20 60 0,0
16.01.2019 11:00:00 12,1 4,1 14,7 9,1 6 4 10 5 NNE 1021,9 40 60 0,0
16.01.2019 10:00:00 10,8 2,1 7,9 9,2 2 1 13 7 W 1021,9 59 60 0,0
16.01.2019 09:00:00 6,7 -0,5 3,7 9,2 9 5 20 11 W 1021,8 58 60 0,0
16.01.2019 08:00:00 5,1 -1,6 2,5 9,4 11 6 19 10 W 1021,6 60 0 0,0
16.01.2019 07:00:00 4,7 -1,5 2,8 9,4 8 4 19 10 WNW 1021,4 60 0 0,0
16.01.2019 06:00:00 5,4 -1,5 3,4 9,5 12 7 19 11 W 1021,1 60 0 0,0
16.01.2019 05:00:00 5,3 -1,0 3,0 9,6 12 6 18 10 W 1021,4 60 0 0,0
16.01.2019 04:00:00 5,4 -0,4 3,3 9,7 9 5 21 12 WNW 1021,6 60 0 0,0
16.01.2019 03:00:00 5,8 -0,5 4,1 9,8 12 7 21 11 W 1022,0 60 0 0,0
16.01.2019 02:00:00 5,8 -0,3 4,1 9,8 11 6 18 10 W 1022,0 60 0 0,0
16.01.2019 01:00:00 5,9 0,0 4,2 9,9 12 6 17 9 W 1022,3 60 0 0,0
16.01.2019 00:00:00 6,1 0,4 3,8 10,0 11 6 17 9 W 1022,5 60 0 0,0
15.01.2019 23:00:00 6,3 0,8 3,6 10,1 9 5 19 11 W 1022,3 60 0 0,0
15.01.2019 22:00:00 6,7 0,6 4,5 10,1 11 6 19 10 W 1022,0 59 0 0,0
15.01.2019 21:00:00 7,1 1,2 4,5 10,1 11 6 18 10 W 1021,5 60 0 0,0
15.01.2019 20:00:00 7,5 1,3 5,6 10,1 10 5 20 11 WNW 1021,2 60 0 0,0
15.01.2019 19:00:00 8,3 1,7 5,9 10,1 10 6 19 10 W 1020,9 60 0 0,0
15.01.2019 18:00:00 8,8 2,1 7,0 10,0 10 5 16 9 W 1020,3 32 0 0,0
15.01.2019 17:00:00 11,7 1,0 8,9 9,9 9 5 25 13 SW 1019,9 60 34 0,0
15.01.2019 16:00:00 13,9 1,8 13,1 9,7 16 9 27 15 SSE 1019,7 60 60 0,0
15.01.2019 15:00:00 14,6 2,1 16,3 9,6 18 10 25 14 SSE 1019,1 60 60 0,0
15.01.2019 14:00:00 15,2 0,2 20,0 9,4 17 9 23 13 SSE 1018,8 60 60 0,0
15.01.2019 13:00:00 15,2 1,3 20,2 9,3 12 7 19 10 SSE 1019,2 60 60 0,0
15.01.2019 12:00:00 15,2 0,2 20,6 9,2 8 4 15 8 SSE 1019,5 20 60 0,0
15.01.2019 11:00:00 15,5 0,5 16,1 9,2 5 3 11 6 SE 1019,8 56 60 0,0
15.01.2019 10:00:00 11,8 -0,1 10,0 9,3 7 4 17 9 W 1019,3 39 60 0,0
15.01.2019 09:00:00 9,2 -2,7 4,7 9,3 11 6 23 12 W 1018,1 45 60 0,0
15.01.2019 08:00:00 7,1 -3,5 4,0 9,5 14 7 18 10 W 1017,2 60 2 0,0
15.01.2019 07:00:00 7,2 -4,6 4,3 9,5 13 7 20 11 W 1016,3 60 0 0,0
15.01.2019 06:00:00 7,3 -4,5 1,2 9,6 11 6 19 10 W 1015,4 60 0 0,0
15.01.2019 05:00:00 7,7 -4,1 4,5 9,7 13 7 22 12 W 1014,6 60 0 0,0
15.01.2019 04:00:00 8,6 -3,3 5,3 9,8 11 6 19 11 W 1014,2 60 0 0,0
15.01.2019 03:00:00 9,2 -2,1 1,7 9,9 11 6 17 9 WSW 1013,7 60 0 0,0
15.01.2019 02:00:00 7,5 -1,5 1,9 10,0 4 2 26 14 NW 1012,7 60 0 0,0
15.01.2019 01:00:00 9,3 -1,5 5,3 10,0 11 6 20 11 WNW 1012,2 60 0 0,0
15.01.2019 00:00:00 9,1 -1,1 6,5 10,1 12 6 23 12 WNW 1011,7 60 0 0,0
14.01.2019 23:00:00 9,4 -0,8 7,0 10,1 13 7 24 13 W 1011,0 60 0 0,0
14.01.2019 22:00:00 9,6 -0,6 3,5 10,2 13 7 22 12 W 1010,3 60 0 0,0
14.01.2019 21:00:00 9,1 0,3 4,3 10,3 5 3 20 11 NW 1009,7 60 0 0,0
14.01.2019 20:00:00 10,5 0,2 6,7 10,2 8 5 24 13 W 1008,9 60 0 0,0
14.01.2019 19:00:00 10,8 1,1 8,0 10,2 14 8 22 12 W 1008,3 60 0 0,0
14.01.2019 18:00:00 11,6 1,8 7,9 10,1 9 5 18 10 WNW 1007,3 60 0 0,0
14.01.2019 17:00:00 12,5 5,4 10,7 9,9 10 5 14 8 W 1007,0 53 33 0,0
14.01.2019 16:00:00 15,8 10,5 15,1 9,7 8 4 14 8 S 1006,5 19 60 0,0
14.01.2019 15:00:00 16,0 10,3 18,2 9,5 10 5 20 11 S 1005,8 33 60 0,0
14.01.2019 14:00:00 15,9 9,6 20,2 9,3 14 8 23 13 SSE 1004,9 46 60 0,0
14.01.2019 13:00:00 15,5 8,2 20,0 9,2 10 5 20 11 SSE 1004,4 41 60 0,0
14.01.2019 12:00:00 15,8 9,0 19,8 9,1 8 4 16 9 S 1004,3 46 60 0,0
14.01.2019 11:00:00 14,8 9,4 16,9 9,0 10 6 16 9 SE 1004,6 26 60 0,0
14.01.2019 10:00:00 13,0 8,3 11,0 9,1 11 6 18 10 S 1003,6 53 60 0,4
14.01.2019 09:00:00 9,8 7,6 4,0 9,1 4 2 14 7 WNW 1003,2 28 31 0,0
14.01.2019 08:00:00 6,3 5,1 2,6 9,2 6 4 11 6 NNW 1003,3 33 0 0,0
14.01.2019 07:00:00 6,9 5,0 2,4 9,2 6 4 18 10 NW 1002,2 42 0 0,0
14.01.2019 06:00:00 6,3 4,5 4,0 9,3 9 5 16 9 WSW 1001,8 45 0 0,0
14.01.2019 05:00:00 6,6 4,4 4,4 9,3 9 5 17 9 W 1002,7 49 0 0,0
14.01.2019 04:00:00 6,7 4,5 3,7 9,4 9 5 17 9 W 1004,0 54 0 0,0
14.01.2019 03:00:00 7,0 4,5 5,5 9,4 10 6 18 10 W 1004,6 60 0 0,0
14.01.2019 02:00:00 7,1 4,4 5,5 9,5 12 7 18 10 W 1005,7 60 0 0,0
14.01.2019 01:00:00 7,2 4,3 5,8 9,5 11 6 18 10 W 1006,2 58 0 0,0
14.01.2019 00:00:00 7,6 4,5 5,9 9,5 11 6 16 9 W 1007,5 52 0 0,0
13.01.2019 23:00:00 7,9 4,8 5,8 9,6 11 6 21 11 W 1008,1 58 0 0,0
13.01.2019 22:00:00 7,8 4,4 6,1 9,6 11 6 19 10 W 1008,3 54 0 0,0
13.01.2019 21:00:00 7,7 4,5 5,8 9,6 11 6 19 11 W 1009,2 59 0 0,0
13.01.2019 20:00:00 7,9 4,3 6,6 9,6 13 7 22 12 W 1009,7 60 0 0,0
13.01.2019 19:00:00 8,4 4,8 6,7 9,5 11 6 19 10 W 1010,7 60 0 0,0
13.01.2019 18:00:00 9,2 5,4 7,5 9,4 9 5 16 9 W 1011,3 59 0 0,0
13.01.2019 17:00:00 11,5 6,0 7,2 9,2 4 2 11 6 SW 1012,0 60 32 0,0
13.01.2019 16:00:00 13,3 5,7 12,7 9,1 8 4 16 9 S 1011,6 50 60 0,0
13.01.2019 15:00:00 14,1 6,4 16,4 8,9 10 6 16 9 S 1011,9 56 60 0,0
13.01.2019 14:00:00 14,2 6,0 20,3 8,7 9 5 18 10 SE 1011,6 37 60 0,0
13.01.2019 13:00:00 14,5 6,1 18,5 8,6 6 3 21 12 E 1012,5 46 60 0,0
13.01.2019 12:00:00 14,1 4,9 15,0 8,5 5 3 15 8 NE 1013,2 55 60 0,0
13.01.2019 11:00:00 13,7 3,5 15,8 8,5 7 4 13 7 N 1013,5 58 60 0,0
13.01.2019 10:00:00 11,5 2,8 10,1 8,5 6 3 18 10 W 1013,1 51 60 0,0
13.01.2019 09:00:00 8,8 2,1 4,3 8,5 12 6 19 10 W 1012,6 50 23 0,0
13.01.2019 08:00:00 7,3 2,8 4,3 8,6 8 4 17 9 W 1012,0 60 0 0,0
13.01.2019 07:00:00 9,4 3,4 6,2 8,6 16 9 27 15 NNE 1011,6 60 0 0,0
13.01.2019 06:00:00 7,8 -0,2 4,2 8,7 19 10 33 18 N 1011,0 60 0 0,0
13.01.2019 05:00:00 6,1 -0,4 2,1 8,7 13 7 21 12 N 1010,2 60 0 0,0
13.01.2019 04:00:00 5,4 -1,1 1,6 8,8 11 6 19 10 W 1011,5 60 0 0,0
13.01.2019 03:00:00 5,5 0,3 3,3 8,9 10 5 16 9 WSW 1013,0 60 0 0,0
13.01.2019 02:00:00 4,8 -0,4 2,8 8,9 10 5 17 9 W 1014,0 60 0 0,0
13.01.2019 01:00:00 5,0 -1,7 2,5 9,0 10 5 19 10 W 1014,7 60 0 0,0
13.01.2019 00:00:00 4,4 -1,8 2,3 9,1 10 5 19 10 WNW 1015,5 60 0 0,0
12.01.2019 23:00:00 5,8 -2,3 3,8 9,1 12 6 23 12 W 1016,3 60 0 0,0
12.01.2019 22:00:00 5,4 -2,0 3,7 9,1 13 7 24 13 W 1018,0 60 0 0,0
12.01.2019 21:00:00 5,3 -1,8 3,4 9,2 14 7 23 12 W 1019,2 60 0 0,0
12.01.2019 20:00:00 5,5 -1,7 3,9 9,2 13 7 21 12 W 1019,2 60 0 0,0
12.01.2019 19:00:00 5,8 -0,9 4,2 9,1 12 7 19 10 W 1019,3 60 0 0,0
12.01.2019 18:00:00 6,6 -0,6 5,0 9,0 11 6 20 11 W 1019,1 60 0 0,0
12.01.2019 17:00:00 7,9 -0,1 6,1 8,9 10 5 16 9 W 1019,3 60 29 0,0
12.01.2019 16:00:00 12,0 -1,5 10,8 8,8 7 4 20 11 SSE 1019,4 57 60 0,0
12.01.2019 15:00:00 12,4 -2,3 14,1 8,6 14 7 22 12 SSE 1019,5 60 60 0,0
12.01.2019 14:00:00 12,4 -2,7 18,3 8,5 11 6 21 11 SSE 1019,4 43 60 0,0
12.01.2019 13:00:00 12,5 -2,6 17,7 8,3 11 6 17 9 SSE 1020,0 60 60 0,0

tt = Température de l'air
td = dewpoint
tt 5cm = Température de l'air 5cm
tt -20cm = Température de l'air -20cm
ff = Vitesse du vent
fx = gusts
dd = Direction du vent
ppp = reduced air pressure
vv = visibility
sd = Ensoleillement
rr = Quantités de précipitations

stations d'obs. à proximité